Regional Weather Roundup
Issued by NWS

Home | Current Version | Previous Version | Text Only | Print | Product List | Glossary Off
Versions: 1 2 3 4 5 6 7 8 9 10 11 12 13 14 15 16 17 18 19 20 21 22 23 24 25 26 27 28 29 30 31 32 33 34 35 36 37 38 39 40 41 42 43 44 45 46 47 48 49 50

000
ASUS43 KMKX 252221
RWRWI

WISCONSIN REGIONAL WEATHER ROUNDUP
NATIONAL WEATHER SERVICE MILWAUKEE/SULLIVAN WI
400 PM CST TUE NOV 25 2014

NOTE: "FAIR" INDICATES FEW OR NO CLOUDS BELOW 12,000 FEET WITH NO
SIGNIFICANT WEATHER AND/OR OBSTRUCTIONS TO VISIBILITY.

WIZ001-002-006>008-014>016-023>028-252300-
NORTHWEST WISCONSIN

CITY           SKY/WX    TMP DP  RH WIND       PRES   REMARKS
SUPERIOR ARPT  PTCLDY    21   9  60 SW6       30.02S WCI  13
ASHLAND        CLEAR     20  14  77 SW7       30.02R WCI  11
HAYWARD        CLOUDY    19  13  77 SW6       30.01S WCI  11
SIREN          CLOUDY    19  12  72 S3        30.04S
CUMBERLAND     CLOUDY    19  12  73 S7        30.02S WCI  10
RICE LAKE      CLOUDY    21  13  73 S5        30.05S WCI  14
CHETEK         CLOUDY    20  12  70 SW3       30.05R
LADYSMITH      CLOUDY    22  14  71 SW5       30.04R WCI  16
EAU CLAIRE     CLOUDY    21  13  71 S5        30.06R WCI  15
MENOMONIE      CLOUDY    23  15  70 SE6       30.06S WCI  16
NEW RICHMOND   CLOUDY    22  14  72 S6        30.04S WCI  14
OSCEOLA        CLOUDY    22  13  70 S3        30.07S
$$

WIZ003>005-009-010-017-018-252300-
NORTH CENTRAL WISCONSIN

CITY           SKY/WX    TMP DP  RH WIND       PRES   REMARKS
MANITOWISH WTR CLEAR     18  10  71 SW7       29.97R WCI   9
ARBOR VITAE    CLEAR     19  13  76 SW5       29.98R WCI  12
WOODRUFF       CLEAR     19  13  76 SW5       29.98R WCI  12
RHINELANDER    CLEAR     14   8  77 W7        29.98R WCI   4
EAGLE RIVER    CLEAR     15   8  72 SW6       29.96S WCI   7
LAND O LAKES   CLEAR     19  11  70 SW3       29.97R
PHILLIPS       PTCLDY    19  12  74 SW6       29.99S WCI  11
TOMAHAWK       CLEAR     18  12  78 CALM      30.01R
MEDFORD        CLEAR     17  11  77 SW5       30.01R WCI  10
MERRILL        CLEAR     19  12  74 W6        30.01R WCI  11
$$

WIZ029-030-035-036-043>047-252300-
CENTRAL WISCONSIN

CITY           SKY/WX    TMP DP  RH WIND       PRES   REMARKS
WAUSAU         CLEAR     18  12  77 SW8       30.02S WCI   8
MOSINEE        CLEAR     18  16  93 W3        30.04R
MARSHFIELD     CLEAR     20  11  68 W5        30.03S WCI  13
STEVENS POINT  CLEAR     19  12  76 W3        30.06R
WAUPACA        PTCLDY    23  15  72 W6        30.08R WCI  15
WAUTOMA        CLOUDY    21  15  78 W8        30.10R WCI  11
WISC RAPIDS    PTCLDY    20  12  71 SW6       30.07S WCI  12
CAMP DOUGLAS   PTCLDY    21  18  86 CALM      30.07S
$$

WIZ011>013-019>022-031-037>040-048>050-252300-
NORTHEAST WISCONSIN

CITY           SKY/WX    TMP DP  RH WIND       PRES   REMARKS
ANTIGO         PTCLDY    16  11  82 SW5       29.99S WCI   9
SHAWANO        CLOUDY    24  17  74 W6        30.07R WCI  17
OCONTO         CLOUDY    24  18  79 W5        30.06S WCI  18
STURGEON BAY   CLOUDY    25  18  74 SW8       30.06R WCI  16
GREEN BAY      CLOUDY    23  16  74 W12       30.08R WCI  12
MANITOWOC      FLURRIES  23  19  85 W8        30.11R WCI  14
APPLETON       CLOUDY    21  16  79 W8        30.08R WCI  12
CLINTONVILLE   CLOUDY    21  16  79 W6        30.07R WCI  14
OSHKOSH        CLOUDY    21  14  74 W8        30.09R WCI  11
$$

WIZ032>034-041-042-053>061-252300-
SOUTHWEST WISCONSIN

CITY           SKY/WX    TMP DP  RH WIND       PRES   REMARKS
LA CROSSE      CLEAR     25  13  60 S6        30.09R WCI  18
SPARTA         CLEAR     22  14  69 CALM      30.09S
VIROQUA        CLEAR     21  14  73 CALM      30.05F
BOSCOBEL       CLEAR     25  14  63 S6        30.11S WCI  18
PRAIRIE DU CHI CLEAR     24  13  65 SW5       30.11S WCI  18
PLATTEVILLE    CLEAR     22  17  78 CALM      30.11S
$$

WIZ056-057-062-063-064-067-068-252300-
SOUTH CENTRAL WISCONSIN

CITY           SKY/WX    TMP DP  RH WIND       PRES   REMARKS
REEDSBURG      PTCLDY    22  15  75 CALM      30.09R
BARABOO/DELLS  CLEAR     21  15  78 CALM      30.09R
LONE ROCK      CLEAR     26  14  60 SW3       30.11R
MINERAL POINT  CLEAR     23  16  74 SW5       30.09S WCI  17
MADISON        MOCLDY    22  16  78 CALM      30.11R
MIDDLETON      CLOUDY    24  17  75 SW6       30.11R WCI  17
WATERTOWN      CLOUDY    22  18  84 SW5       30.11R WCI  15
MONROE         CLEAR     23  18  80 SW7       30.10S WCI  15
JANESVILLE     PTCLDY    23  16  74 W8        30.13R WCI  14
$$

WIZ051-052-058>065-066-070>072-252300-
SOUTHEAST WISCONSIN

CITY           SKY/WX    TMP DP  RH WIND       PRES   REMARKS
MILWAUKEE      CLOUDY    24  17  74 SW10      30.12R WCI  14
WAUKESHA       CLOUDY    19  16  86 SW9       30.12R WCI   9
MILWAUKEE/TIMM CLOUDY    23  16  74 SW7       30.12R WCI  15
RACINE         CLOUDY    24  17  74 W9        30.14R WCI  14
BURLINGTON     CLOUDY    21  16  80 SW13      30.13R WCI   9
KENOSHA        CLOUDY    24  17  74 W12       30.13R WCI  13
FOND DU LAC    CLOUDY    21  15  78 SW7       30.10R WCI  12
SHEBOYGAN      CLOUDY    22  15  75 NW7       30.11R WCI  13
WEST BEND      CLOUDY    21  16  79 W8        30.10R WCI  12
JUNEAU         CLOUDY    21  16  80 SW8       30.12R WCI  11
$$

LSZ147-162-252300-
LAKE SUPERIOR

STATION/POSITION TIME  TEMP    WIND        PRES    WAVE
                       AIR SEA DIR/SP/G            HT/PER
                 (UTC) (F)     (DEG/KT/KT) (MB)    (FT/S)
DEVILS ISLAND    2200   23     240/ 10/ 15 1017.5R
PORT WING        2100   24     190/  8/ 12 1016.3R
SAXON HARBOR     2100   24     210/  4/  7 1016.3S
$$

LMZ867-665-643>646-252300-
LAKE MICHIGAN

STATION/POSITION TIME  TEMP    WIND        PRES    WAVE
                       AIR SEA DIR/SP/G            HT/PER
                 (UTC) (F)     (DEG/KT/KT) (MB)    (FT/S)
CHAMBERS ISLAND  2100   27     260/  4/  9 1016.9R
N MID LAKE BUOY  2150   28 42  270/ 12/ 16 1017.9R   2/ 4
NORTHPORT PIER   2201   27     280/  3/ 11 1017.6R
SISTER BAY       2113          340/  9/ 10   N/A
KEWAUNEE LAKESHO 2200   23     280/  3/  8 1017.8R
SHEBOYGAN LAKESH 2200   23 36  260/  8/  9 1021.0R
PORT WASHINGTON  2100   24     250/  8/ 12 1020.3R
MILWAUKEE LAKESH 2200   24     230/ 13/ 15   N/A
S MID LAKE BUOY  2150   29 42  250/ 12/ 16 1020.9R   3/ 6
KENOSHA   LAKESH 2200   25     260/ 10/ 14 1020.3R
$$

TC  - TEMPERATURE IN CELSIUS
VSB - VISIBILITY IN STATUTE MILES
WCI - WIND CHILL INDEX
HX  - HEAT INDEX



USA.gov is the U.S. government's official web portal to all federal, state and local government web resources and services.